Tracking 26240 objects as of 6-Oct-2022
HD Live streaming from Space Station
objects crossing your sky now

STARLINK-3321

Track STARLINK-3321 now!
10-day predictions
STARLINK-3321 is classified as:


NORAD ID: 50803
Int'l Code: 2022-001A
Perigee: 545.7 km
Apogee: 548.1 km
Inclination: 53.2 °
Period: 95.4 minutes
Semi major axis: 6917 km
RCS: Unknown
Launch date: January 6, 2022
Source: United States (US)
Launch site: AIR FORCE EASTERN TEST RANGE (AFETR)
aabbcc
Your satellite tracking list
Your tracking list is empty




NASA's NSSDC Master Catalog

Two Line Element Set (TLE):
1 50803U 22001A   22278.44615035 -.00001190  00000-0 -56707-4 0  9992
2 50803  53.2199  26.1653 0001739  47.2569 312.8570 15.08840244 41516
Source of the keplerian elements: AFSPC